sat.trackr.live / text

‹ back to catalog

STARLINK-37144

NORAD 68556 · 2026-070Q

PAYLOAD ACTIVE UNKNOWN

§ Identity

Operator
Country
US
Launch date
2026-04-02
Launch site
AFETR
Launch vehicle
Mass (kg)
RCS (m²)

Purposes: comms

External: N2YO · Heavens-Above · Gunter

§ Orbital elements

Epoch: 2026-09-19T21:06:45.622944Z

Period
93.85 min
Inclination
53.1581°
Eccentricity
0.0001814
Mean motion
15.34402043 rev/d
Perigee alt
461.5 km
Apogee alt
463.9 km
Semi-major
6,840.8 km
B*
5.9543e-4
RAAN
176.4945°
Arg perigee
90.9386°
Mean anomaly
269.1824°
Rev number
2,634

§ Raw data

STARLINK-371441 68556U 26070Q   26262.87969471  .00019796  00000+0  59543-3 0  99942 68556  53.1581 176.4945 0001814  90.9386 269.1824 15.34402043 26343

JSON: /api/v1/satellites/68556 · /tle

For live sub-satellite position, see the globe view (requires WebGL).

§ Visibility from observer

Set your observer location to see the next 7 days of passes ≥ 10°. The values pass through the URL so the page stays shareable.

No JS? Fill the form by hand. The geolocation button needs JavaScript.